Simultaneous Nadir Overpasses (SNOs) Predictions

Prediction of SNOs between AQUA and METOP-B Satellite Orbit:

Table of predicted SNOs for the next 14.0 days since TLE Epoch: 12/13/2019
Index Date (AQUA) Time (AQUA) Lat,Lon (AQUA) SZA (AQUA ) Date (METOP-B) Time (METOP-B) Lat,Lon (METOP-B) SZA (METOP-B ) Distance(km) Time Diff (sec)
1 12/14/2019 03:27:31 -73.74, -57.53 83.13 12/14/2019 03:26:23 -73.74, -57.54 83.12 0.36 68
2 12/14/2019 04:17:00 73.79, 109.99 96.93 12/14/2019 04:17:02 73.80, 109.94 96.94 2.08 2
3 12/14/2019 05:06:28 -73.94, -82.70 82.91 12/14/2019 05:07:41 -73.92, -82.45 82.94 8.02 73
4 12/16/2019 23:01:47 -73.75, 8.90 82.97 12/16/2019 23:00:47 -73.75, 8.90 82.96 0.81 60
5 12/16/2019 23:51:16 73.80, 176.42 97.09 12/16/2019 23:51:26 73.81, 176.36 97.10 2.14 10
6 12/17/2019 00:40:50 -74.26, -16.98 82.43 12/17/2019 00:41:59 -74.23, -15.28 82.50 51.45 69
7 12/19/2019 18:36:03 -73.76, 75.31 82.87 12/19/2019 18:35:11 -73.76, 75.32 82.86 0.80 52
8 12/19/2019 19:25:32 73.81,-117.17 97.19 12/19/2019 19:25:50 73.82,-117.22 97.20 1.44 18
9 12/19/2019 20:15:12 -74.58, 48.69 82.00 12/19/2019 20:16:17 -74.53, 51.91 82.12 95.38 65
10 12/22/2019 14:10:19 -73.78, 141.71 82.82 12/22/2019 14:09:35 -73.77, 141.75 82.82 1.26 44
11 12/22/2019 14:59:48 73.83, -50.78 97.24 12/22/2019 15:00:14 73.82, -50.80 97.23 1.30 26
12 12/25/2019 09:44:34 -73.80,-151.90 82.83 12/25/2019 09:43:58 -73.78,-151.83 82.85 3.20 36
13 12/25/2019 10:34:03 73.86, 15.60 97.24 12/25/2019 10:34:37 73.82, 15.61 97.20 3.83 34




NCC Satellite Simultaneous Nadir Overpasses (SNOs) Prediction Service
